Regional Weather Roundup
Issued by NWS Green Bay, WI

Home | Current Version | Previous Version | Graphics & Text | Print | Product List | Glossary Off
Versions: 1 2 3 4 5 6 7 8 9 10 11 12 13 14 15 16 17 18 19 20 21 22 23 24 25 26 27 28 29 30 31 32 33 34 35 36 37 38 39 40 41 42 43 44 45 46 47 48 49 50

000
ASUS43 KGRB 270259
RWRGRB

NORTH-CENTRAL AND NORTHEAST WISCONSIN REGIONAL WEATHER ROUNDUP
NATIONAL WEATHER SERVICE GREEN BAY WI
1000 PM CDT TUE AUG 26 2014

WIZ005-009-010>012-018-019-270400-
NORTH CENTRAL WISCONSIN

CITY           SKY/WX    TMP DP  RH WIND       PRES   REMARKS
IRONWOOD       NOT AVBL
MANITOWISH WTR NOT AVBL
ARBOR VITAE    NOT AVBL
EAGLE RIVER    NOT AVBL
LAND O LAKES   NOT AVBL
RHINELANDER    CLEAR     56  51  84 N3        30.16R
PHILLIPS       NOT AVBL
ANTIGO         NOT AVBL
TOMAHAWK       NOT AVBL
MERRILL        NOT AVBL
$$

WIZ013-073-270400-
NORTHEAST WISCONSIN

CITY           SKY/WX    TMP DP  RH WIND       PRES   REMARKS
IRON MOUNTAIN  CLEAR     56  49  77 N5        30.13R
MARINETTE      CLEAR     59  54  82 CALM      30.09R
$$

WIZ017-030-035>037-045-270400-
CENTRAL WISCONSIN

CITY           SKY/WX    TMP DP  RH WIND       PRES   REMARKS
MEDFORD        NOT AVBL
WAUSAU         PTCLDY    61  55  81 NW5       30.13R
MOSINEE        CLEAR     61  55  82 W5        30.16R
MARSHFIELD     PTCLDY    59  54  83 NW6       30.15S
WISC RAPIDS    PTCLDY    63  56  78 N5        30.15S
STEVENS POINT  NOT AVBL
WAUPACA        NOT AVBL
SHAWANO        CLEAR     63  57  80 CALM      30.12R
CLINTONVILLE   NOT AVBL
$$

WIZ038-039-048-051-270400-
FOX VALLEY

CITY           SKY/WX    TMP DP  RH WIND       PRES   REMARKS
NWS GREEN BAY  CLEAR     60  58  92 W3        30.11R
APPLETON       PTCLDY    61  54  77 W7        30.13R
OSHKOSH        CLEAR     63  57  81 W5        30.12R
FOND DU LAC    CLEAR     63  56  78 W6        30.13R
$$

WIZ022-050-052-270400-
EAST CENTRAL WISCONSIN

CITY           SKY/WX    TMP DP  RH WIND       PRES   REMARKS
STURGEON BAY   CLEAR     61  57  88 CALM      30.11S
MANITOWOC      NOT AVBL
SHEBOYGAN      CLEAR     60  58  92 CALM      30.11R
$$

LMZ563-521-522-541>543-270400-
LAKESHORE

STATION/POSITION TIME  TEMP    WIND        PRES    VSBY  WAVE
                       AIR SEA DIR/SP/G                  HT/PER
                 (UTC) (F)     (DEG/KT/KT) (MB)    (MI)  (FT/S)
SHEBOYGAN LKSHOR 0200   70 64  320/  5/  6 1019.2R
KEWAUNEE LKSHORE 0200   65      CALM  /  1 1018.4R
ALGOMA MARINA    0200             CALM       N/A
NORTHPORT PIER   0200   63     180/  3/  5 1019.3R
N MID LAKE BUOY  0200   65 66  250/  6/  6 1018.9R         0
S GREEN BAY BUOY 0200   71     VRB  6      1020.0F
SISTER BAY LKSHO 0200   63     150/  6/  8   N/A
CHAMBERS ISLAND  0200   60      CALM  /  3 1019.0R
MENOMINEE LKSHOR 0200   68     270/  3/  4 1019.5S
$$



USA.gov is the U.S. government's official web portal to all federal, state and local government web resources and services.